�������l�o���
Date,Time,MP-1(��Sv/h),MP-2(��Sv/h),MP-3(��Sv/h),MP-4(��Sv/h),MP-5(��Sv/h),MP-6(��Sv/h),MP-7(��Sv/h),MP-8(��Sv/h),����,����(m/s),���J
2020/06/30,00:00,0.680,0.967,0.627,1.169,0.849,0.401,0.680,0.638,��,5.3,��
2020/06/30,00:10,0.680,0.968,0.626,1.169,0.850,0.400,0.679,0.639,��,5.1,��
2020/06/30,00:20,0.680,0.967,0.627,1.171,0.852,0.400,0.682,0.638,��,4.5,��
2020/06/30,00:30,0.679,0.969,0.628,1.170,0.850,0.399,0.680,0.638,��,4.2,��
2020/06/30,00:40,0.680,0.967,0.625,1.170,0.850,0.399,0.680,0.639,��,3.8,��
2020/06/30,00:50,0.681,0.965,0.630,1.169,0.850,0.400,0.680,0.640,��쐼,3.0,��
2020/06/30,01:00,0.680,0.965,0.626,1.168,0.849,0.401,0.680,0.638,��쐼,1.7,��
2020/06/30,01:10,0.680,0.968,0.628,1.168,0.850,0.400,0.681,0.639,��,2.6,��
2020/06/30,01:20,0.680,0.967,0.628,1.170,0.850,0.399,0.682,0.638,��,2.6,��
2020/06/30,01:30,0.678,0.965,0.628,1.169,0.849,0.400,0.681,0.638,��,3.6,��
2020/06/30,01:40,0.681,0.966,0.627,1.171,0.850,0.400,0.680,0.641,��쐼,3.5,��
2020/06/30,01:50,0.679,0.964,0.628,1.169,0.852,0.400,0.681,0.637,��쓌,1.7,��
2020/06/30,02:00,0.680,0.965,0.628,1.171,0.848,0.399,0.679,0.638,��,0.6,��
2020/06/30,02:10,0.681,0.966,0.629,1.170,0.853,0.399,0.680,0.638,��쓌,1.2,��
2020/06/30,02:20,0.679,0.967,0.627,1.168,0.850,0.400,0.682,0.638,��,2.3,��
2020/06/30,02:30,0.681,0.966,0.626,1.171,0.849,0.398,0.681,0.637,��쐼,1.5,��
2020/06/30,02:40,0.678,0.965,0.627,1.171,0.850,0.399,0.681,0.638,���쐼,0.9,��
2020/06/30,02:50,0.683,0.967,0.626,1.171,0.851,0.398,0.683,0.640,�k��,1.4,��
2020/06/30,03:00,0.681,0.968,0.628,1.174,0.851,0.401,0.681,0.639,�k��,0.8,��
2020/06/30,03:10,0.683,0.968,0.631,1.172,0.850,0.400,0.681,0.639,��,1.7,��
2020/06/30,03:20,0.682,0.968,0.631,1.172,0.850,0.400,0.682,0.640,��,1.1,��
2020/06/30,03:30,0.683,0.968,0.629,1.173,0.851,0.400,0.683,0.640,-,CALM,��
2020/06/30,03:40,0.682,0.968,0.630,1.171,0.851,0.401,0.683,0.641,-,CALM,��
2020/06/30,03:50,0.682,0.968,0.628,1.173,0.852,0.400,0.684,0.639,�k��,1.1,��
2020/06/30,04:00,0.682,0.969,0.630,1.170,0.851,0.401,0.681,0.639,�k��,1.7,��
2020/06/30,04:10,0.683,0.965,0.629,1.172,0.851,0.399,0.681,0.642,�k��,2.0,��
2020/06/30,04:20,0.682,0.967,0.629,1.171,0.851,0.399,0.682,0.640,�k�k��,1.2,��
2020/06/30,04:30,0.681,0.967,0.628,1.173,0.850,0.399,0.682,0.640,�k�k��,1.9,��
2020/06/30,04:40,0.682,0.969,0.629,1.169,0.849,0.396,0.682,0.638,�k�k��,1.2,��
2020/06/30,04:50,0.681,0.968,0.629,1.172,0.851,0.397,0.682,0.639,�k�k��,1.9,��
2020/06/30,05:00,0.680,0.964,0.629,1.169,0.851,0.399,0.681,0.639,�k,2.0,��
2020/06/30,05:10,0.681,0.966,0.628,1.170,0.849,0.400,0.682,0.639,�k�k��,1.7,��
2020/06/30,05:20,0.680,0.967,0.629,1.172,0.849,0.396,0.682,0.639,�k�k��,2.0,��
2020/06/30,05:30,0.681,0.968,0.628,1.173,0.851,0.398,0.681,0.638,���k��,1.7,��
2020/06/30,05:40,0.680,0.967,0.629,1.169,0.851,0.397,0.683,0.638,��,1.7,��
2020/06/30,05:50,0.680,0.966,0.628,1.172,0.850,0.397,0.681,0.639,���k��,1.5,��
2020/06/30,06:00,0.682,0.968,0.628,1.170,0.851,0.399,0.681,0.640,�k��,1.4,��
2020/06/30,06:10,0.681,0.965,0.629,1.170,0.849,0.396,0.682,0.639,�k�k��,1.4,��
2020/06/30,06:20,0.679,0.967,0.629,1.173,0.851,0.397,0.682,0.639,��,0.9,��
2020/06/30,06:30,0.681,0.968,0.628,1.169,0.849,0.398,0.680,0.639,���쓌,0.8,��
2020/06/30,06:40,0.681,0.965,0.629,1.172,0.851,0.398,0.682,0.639,-,CALM,��
2020/06/30,06:50,0.680,0.966,0.627,1.171,0.851,0.396,0.682,0.638,���쐼,0.6,��
2020/06/30,07:00,0.680,0.966,0.628,1.173,0.848,0.396,0.681,0.639,�쓌,0.6,��
2020/06/30,07:10,0.678,0.966,0.627,1.171,0.850,0.396,0.681,0.638,�k,0.9,��
2020/06/30,07:20,0.680,0.966,0.628,1.170,0.851,0.397,0.681,0.637,��,1.1,��
2020/06/30,07:30,0.680,0.963,0.623,1.170,0.851,0.397,0.680,0.637,��,1.9,��
2020/06/30,07:40,0.681,0.967,0.621,1.170,0.849,0.395,0.681,0.638,��쓌,0.9,��
2020/06/30,07:50,0.681,0.964,0.623,1.172,0.848,0.395,0.680,0.638,��쓌,1.5,��
2020/06/30,08:00,0.681,0.964,0.620,1.171,0.849,0.395,0.679,0.638,�쓌,1.5,��
2020/06/30,08:10,0.678,0.962,0.622,1.169,0.850,0.393,0.680,0.638,��쓌,1.2,��
2020/06/30,08:20,0.679,0.963,0.628,1.171,0.848,0.394,0.680,0.639,��쓌,1.7,��
2020/06/30,08:30,0.678,0.961,0.627,1.171,0.849,0.394,0.681,0.638,��쓌,2.3,��
2020/06/30,08:40,0.679,0.960,0.626,1.168,0.850,0.395,0.680,0.638,�쓌,1.7,��
2020/06/30,08:50,0.677,0.958,0.628,1.168,0.848,0.394,0.679,0.637,��쓌,2.9,��
2020/06/30,09:00,0.678,0.960,0.628,1.171,0.847,0.396,0.679,0.637,��쓌,3.4,��
2020/06/30,09:10,0.678,0.957,0.626,1.170,0.848,0.395,0.679,0.636,��쓌,1.1,��
2020/06/30,09:20,0.679,0.957,0.625,1.170,0.847,0.395,0.680,0.638,�쓌,1.7,��
2020/06/30,09:30,0.679,0.956,0.625,1.170,0.846,0.395,0.680,0.637,��,2.8,��
2020/06/30,09:40,0.678,0.955,0.626,1.169,0.847,0.395,0.680,0.636,��쓌,4.2,��
2020/06/30,09:50,0.678,0.955,0.625,1.170,0.847,0.396,0.680,0.636,��쓌,4.5,��
2020/06/30,10:00,0.677,0.958,0.624,1.172,0.849,0.396,0.680,0.637,��쓌,4.2,��
2020/06/30,10:10,0.679,0.957,0.628,1.171,0.848,0.396,0.679,0.635,��쓌,4.8,��
2020/06/30,10:20,0.677,0.955,0.626,1.168,0.849,0.395,0.680,0.638,��,4.2,��
2020/06/30,10:30,0.679,0.955,0.626,1.169,0.848,0.395,0.680,0.638,��,3.3,��
2020/06/30,10:40,0.679,0.959,0.625,1.169,0.848,0.396,0.680,0.636,��,3.3,��
2020/06/30,10:50,0.680,0.960,0.625,1.168,0.848,0.396,0.680,0.636,��,5.3,��
2020/06/30,11:00,0.680,0.959,0.627,1.166,0.847,0.397,0.679,0.636,��,5.9,�L
2020/06/30,11:10,0.678,0.959,0.625,1.169,0.845,0.397,0.680,0.637,��,6.6,�L
2020/06/30,11:20,0.680,0.964,0.626,1.168,0.848,0.396,0.682,0.635,��,7.5,�L
2020/06/30,11:30,0.679,0.960,0.625,1.169,0.849,0.396,0.681,0.636,��쓌,9.5,��
2020/06/30,11:40,0.680,0.962,0.626,1.171,0.849,0.397,0.681,0.638,��쓌,8.8,��
2020/06/30,11:50,0.678,0.964,0.626,1.168,0.848,0.397,0.680,0.636,��쓌,10.2,�L
2020/06/30,12:00,0.681,0.965,0.624,1.170,0.849,0.396,0.682,0.637,��쓌,10.2,��
2020/06/30,12:10,0.680,0.967,0.626,1.168,0.850,0.398,0.681,0.636,��쓌,9.7,��
2020/06/30,12:20,0.681,0.967,0.626,1.170,0.850,0.398,0.681,0.638,��쓌,8.4,�L
2020/06/30,12:30,0.681,0.969,0.627,1.168,0.851,0.398,0.681,0.636,��쓌,8.2,�L
2020/06/30,12:40,0.682,0.968,0.626,1.171,0.850,0.398,0.682,0.636,��쓌,9.4,�L
2020/06/30,12:50,0.680,0.971,0.627,1.171,0.850,0.400,0.682,0.636,��,8.5,�L
2020/06/30,13:00,0.681,0.967,0.628,1.171,0.849,0.398,0.682,0.635,��,8.9,��
2020/06/30,13:10,0.680,0.968,0.624,1.172,0.849,0.399,0.681,0.636,��,8.5,��
2020/06/30,13:20,0.680,0.965,0.626,1.173,0.850,0.400,0.682,0.636,��,9.3,�L
2020/06/30,13:30,0.678,0.966,0.624,1.170,0.849,0.399,0.682,0.637,��,8.7,�L
2020/06/30,13:40,0.680,0.965,0.625,1.173,0.848,0.399,0.680,0.636,��쓌,9.6,�L
2020/06/30,13:50,0.679,0.962,0.625,1.171,0.848,0.399,0.680,0.635,��쓌,8.9,�L
2020/06/30,14:00,0.679,0.964,0.626,1.173,0.850,0.399,0.680,0.637,��쓌,10.0,��
2020/06/30,14:10,0.678,0.961,0.626,1.171,0.848,0.401,0.682,0.636,��,9.3,�L
2020/06/30,14:20,0.678,0.966,0.624,1.171,0.848,0.400,0.681,0.637,��,8.7,�L
2020/06/30,14:30,0.675,0.957,0.622,1.168,0.842,0.398,0.679,0.635,��쓌,11.0,�L
2020/06/30,14:40,0.672,0.951,0.620,1.164,0.838,0.398,0.675,0.633,��쓌,11.6,�L
2020/06/30,14:50,0.670,0.948,0.618,1.163,0.834,0.396,0.673,0.632,��쓌,11.3,�L
2020/06/30,15:00,0.671,0.949,0.617,1.160,0.834,0.398,0.676,0.632,��,10.8,�L
2020/06/30,15:10,0.671,0.949,0.618,1.160,0.835,0.397,0.676,0.633,��,10.2,�L
2020/06/30,15:20,0.672,0.948,0.617,1.160,0.833,0.398,0.674,0.631,��,8.3,�L
2020/06/30,15:30,0.671,0.952,0.617,1.161,0.834,0.398,0.674,0.633,��,7.6,��
2020/06/30,15:40,0.672,0.949,0.618,1.160,0.834,0.397,0.676,0.632,��,8.5,�L
2020/06/30,15:50,0.671,0.951,0.618,1.158,0.835,0.398,0.675,0.633,��,9.2,�L
2020/06/30,16:00,0.671,0.952,0.619,1.158,0.834,0.397,0.675,0.633,��,9.6,�L
2020/06/30,16:10,0.671,0.953,0.618,1.160,0.833,0.398,0.676,0.631,��,9.6,�L
2020/06/30,16:20,0.671,0.951,0.618,1.158,0.834,0.398,0.675,0.634,��,10.2,�L
2020/06/30,16:30,0.672,0.951,0.617,1.160,0.836,0.397,0.674,0.632,��,11.0,�L
2020/06/30,16:40,0.669,0.950,0.618,1.158,0.833,0.396,0.675,0.631,��,12.4,�L
2020/06/30,16:50,0.670,0.951,0.617,1.160,0.834,0.398,0.674,0.632,��,11.8,�L
2020/06/30,17:00,0.669,0.949,0.617,1.159,0.833,0.397,0.675,0.630,��,10.0,�L
2020/06/30,17:10,0.670,0.950,0.618,1.158,0.833,0.396,0.675,0.632,��,9.6,�L
2020/06/30,17:20,0.668,0.950,0.615,1.160,0.833,0.397,0.674,0.632,��쓌,11.1,�L
2020/06/30,17:30,0.668,0.948,0.614,1.160,0.835,0.396,0.674,0.631,��,9.5,�L
2020/06/30,17:40,0.668,0.951,0.615,1.157,0.832,0.397,0.673,0.632,��,8.1,�L
2020/06/30,17:50,0.669,0.951,0.617,1.161,0.834,0.397,0.675,0.632,��,7.2,�L
2020/06/30,18:00,0.669,0.950,0.617,1.158,0.834,0.397,0.673,0.631,��,9.2,�L
2020/06/30,18:10,0.666,0.948,0.615,1.158,0.832,0.397,0.673,0.631,��,7.8,�L
2020/06/30,18:20,0.668,0.947,0.615,1.158,0.832,0.397,0.672,0.630,��,7.2,�L
2020/06/30,18:30,0.666,0.948,0.615,1.157,0.833,0.397,0.672,0.630,��,9.6,�L
2020/06/30,18:40,0.665,0.946,0.616,1.159,0.833,0.398,0.672,0.630,��,10.2,�L
2020/06/30,18:50,0.667,0.948,0.616,1.157,0.832,0.397,0.672,0.631,��,12.4,�L
2020/06/30,19:00,0.665,0.947,0.617,1.156,0.832,0.396,0.674,0.631,��,7.1,�L
2020/06/30,19:10,0.667,0.949,0.615,1.160,0.833,0.397,0.673,0.630,��쐼,8.5,�L
2020/06/30,19:20,0.667,0.948,0.616,1.158,0.830,0.396,0.673,0.632,��,10.3,�L
2020/06/30,19:30,0.668,0.950,0.617,1.159,0.832,0.396,0.674,0.630,��,11.3,�L
2020/06/30,19:40,0.668,0.948,0.617,1.158,0.830,0.398,0.672,0.632,��,8.7,�L
2020/06/30,19:50,0.667,0.948,0.618,1.159,0.832,0.396,0.674,0.630,��,9.3,�L
2020/06/30,20:00,0.667,0.949,0.618,1.160,0.834,0.398,0.675,0.633,��,9.3,��
2020/06/30,20:10,0.668,0.948,0.618,1.160,0.834,0.397,0.675,0.631,��,10.8,��
2020/06/30,20:20,0.668,0.948,0.618,1.156,0.833,0.396,0.674,0.633,��,9.8,��
2020/06/30,20:30,0.666,0.947,0.615,1.158,0.833,0.395,0.676,0.632,��,9.4,�L
2020/06/30,20:40,0.668,0.950,0.618,1.158,0.834,0.396,0.676,0.633,��,10.2,��
2020/06/30,20:50,0.666,0.949,0.615,1.156,0.834,0.396,0.674,0.632,��,11.3,�L
2020/06/30,21:00,0.667,0.947,0.616,1.157,0.831,0.397,0.675,0.631,��,8.4,��
2020/06/30,21:10,0.669,0.949,0.617,1.159,0.832,0.396,0.675,0.632,��,9.4,��
2020/06/30,21:20,0.666,0.949,0.616,1.159,0.832,0.397,0.675,0.632,��,8.8,��
2020/06/30,21:30,0.669,0.949,0.617,1.159,0.832,0.397,0.676,0.632,��,9.1,��
2020/06/30,21:40,0.666,0.948,0.618,1.158,0.833,0.396,0.676,0.632,��,7.9,��
2020/06/30,21:50,0.667,0.948,0.618,1.159,0.833,0.397,0.675,0.632,��,7.6,�L
2020/06/30,22:00,0.667,0.949,0.617,1.159,0.832,0.398,0.675,0.633,��,7.5,�L
2020/06/30,22:10,0.667,0.949,0.620,1.160,0.834,0.397,0.675,0.633,��,7.4,�L
2020/06/30,22:20,0.667,0.949,0.618,1.160,0.833,0.396,0.675,0.632,��,7.9,��
2020/06/30,22:30,0.666,0.950,0.618,1.161,0.834,0.397,0.675,0.631,��,7.6,��
2020/06/30,22:40,0.667,0.949,0.619,1.162,0.833,0.396,0.675,0.632,��,9.7,�L
2020/06/30,22:50,0.670,0.950,0.617,1.158,0.835,0.397,0.676,0.632,��,7.9,�L
2020/06/30,23:00,0.669,0.949,0.619,1.160,0.834,0.397,0.675,0.632,��,7.9,�L
2020/06/30,23:10,0.670,0.950,0.619,1.161,0.835,0.400,0.675,0.632,��,8.2,�L
2020/06/30,23:20,0.670,0.948,0.619,1.160,0.833,0.399,0.676,0.634,��,8.0,�L
2020/06/30,23:30,0.669,0.951,0.620,1.160,0.834,0.400,0.674,0.632,��,9.2,�L
2020/06/30,23:40,0.670,0.950,0.618,1.160,0.834,0.399,0.674,0.632,��,8.7,�L
2020/06/30,23:50,0.672,0.947,0.620,1.161,0.833,0.400,0.674,0.631,��,8.9,�L
